User: anonymous   Login
Location: Newsoms
(36.6240°N, 77.1250°W)
Time: 05:15:47
(UTC-04:00)
Language:

BREEZE-M DEB (TANK) - Orbit

View from above orbital plane
View from above orbital plane
View from above satellite
View from above satellite

Ground track
Ground track

The orbit data is extracted from the following two-line orbital elements,

1 29649U 06056B   16126.22399083  .00003088  00000-0  43094-3 0  9991
2 29649  49.4539 172.0227 5399300 266.8762  33.2628  4.98315545167409
Epoch (UTC): 05 May 2016 05:22:32
Eccentricity: 0.5399300
inclination: 49.4539°
perigee height: 283 km
apogee height: 15918 km
right ascension of ascending node: 172.0227°
argument of perigee: 266.8762°
revolutions per day: 4.98315545
mean anomaly at epoch: 33.2628°
orbit number at epoch: 16740

The dashed part of the orbit path shows where the satellite is in the earth's shadow,  

DLR